Starlink 32552

operational
NORAD ID: 62174 Int'l Des: 2024-225 Owner: SPXS Country: US Constellation: starlink
LEOCIRCULAR

About Starlink 32552

Description loading...

Live Position

Loading 3D Globe...

Upcoming Passes

Altitude History

Altitude vs Time

uPlot chart will show altitude changes over time

Two-Line Element Set

1 62174U 24225M 25352.48032784 .00001821 00000-0 16032-3 0 9995
2 62174 70.0019 9.0959 0003118 274.2317 85.8486 14.98335222 57718
Epoch: Dec 18, 2025 • Age: 20 hours

Current Status

Altitude 585.0 km
Velocity 7.57 km/s
Sub-Earth Point 66.44°N, 65.42°W
Launch Date Nov 30, 2024
Age 1 years
Type internet

Technical Details

Classification Payload
Mass 730.00 kg
Dry Mass 700.00 kg
Total Mass 730.00 kg
Length 0.30 m
Diameter 4.10 m
Span 29.00 m
Shape Box + pan
Manufacturer SPXS
Bus Type Starlink V2M
Phase Status In Orbit
Owner/State SPXS/US

Large Constellations

Loading constellations...